Wetterdaten: Mrz 2012
Datum Temp Feuchte Luftdruck Regen Wind Richtung Sonnenschein UV Solar Windben
01.03.2012 7,8 C 100 % 1025,3 hPa 0,2 l/m 1,4 km/h W-SW 0,00 h 0,6 UV-I 80 W/m 4,4 km/h
02.03.2012 7,1 C 91 % 1026,2 hPa 0,2 l/m 1,8 km/h O-SO 5,00 h 1,2 UV-I 217 W/m 4,0 km/h
03.03.2012 5,9 C 93 % 1023,2 hPa 0,2 l/m 3,0 km/h S-SO 4,67 h 1,1 UV-I 211 W/m 9,6 km/h
04.03.2012 6,4 C 95 % 1018,3 hPa 0,0 l/m 0,9 km/h SO 0,17 h 0,8 UV-I 76 W/m 7,6 km/h
05.03.2012 3,8 C 81 % 1017,8 hPa 0,2 l/m 6,1 km/h S-SO 0,08 h 0,7 UV-I 78 W/m 14,5 km/h
06.03.2012 3,7 C 77 % 1026,3 hPa 0,0 l/m 1,8 km/h SO 7,92 h 1,2 UV-I 295 W/m 6,1 km/h
07.03.2012 1,9 C 87 % 1017,0 hPa 6,0 l/m 3,1 km/h S 3,67 h 0,9 UV-I 151 W/m 9,2 km/h
08.03.2012 3,7 C 87 % 1027,9 hPa 5,8 l/m 3,7 km/h N-NW 4,17 h 1,1 UV-I 219 W/m 9,6 km/h
09.03.2012 5,8 C 81 % 1035,4 hPa 0,0 l/m 4,3 km/h S-SW 6,08 h 1,4 UV-I 279 W/m 13,3 km/h
10.03.2012 7,0 C 97 % 1031,9 hPa 1,6 l/m 7,0 km/h W 0,00 h 0,5 UV-I 36 W/m 19,7 km/h
11.03.2012 7,2 C 91 % 1031,4 hPa 0,2 l/m 4,5 km/h N-NW 1,33 h 1,0 UV-I 115 W/m 16,9 km/h
12.03.2012 5,8 C 99 % 1030,8 hPa 0,2 l/m 5,9 km/h N-NW 0,00 h 0,6 UV-I 49 W/m 17,7 km/h
13.03.2012 5,7 C 91 % 1032,3 hPa 0,0 l/m 2,9 km/h N-NW 0,00 h 0,7 UV-I 62 W/m 15,3 km/h
14.03.2012 4,6 C 87 % 1031,5 hPa 0,0 l/m 0,1 km/h N-NW 0,00 h 0,7 UV-I 70 W/m 0,8 km/h
15.03.2012 6,5 C 82 % 1026,5 hPa 0,0 l/m 2,3 km/h S 9,17 h 1,6 UV-I 336 W/m 4,8 km/h
16.03.2012 9,4 C 75 % 1019,4 hPa 0,0 l/m 0,2 km/h S-SW 9,33 h 1,6 UV-I 340 W/m 1,6 km/h
17.03.2012 8,8 C 87 % 1015,2 hPa 0,0 l/m 0,0 km/h NW 4,17 h 1,5 UV-I 203 W/m 0,4 km/h
18.03.2012 6,2 C 88 % 1016,1 hPa 1,8 l/m 4,3 km/h S 0,17 h 0,8 UV-I 82 W/m 16,5 km/h
19.03.2012 3,4 C 78 % 1030,5 hPa 0,2 l/m 1,2 km/h NW 8,42 h 1,6 UV-I 353 W/m 4,8 km/h
20.03.2012 7,4 C 74 % 1034,7 hPa 0,0 l/m 0,9 km/h SW 7,75 h 1,8 UV-I 327 W/m 4,4 km/h
21.03.2012 9,7 C 83 % 1034,9 hPa 0,0 l/m 0,4 km/h N-NW 9,17 h 1,7 UV-I 332 W/m 2,4 km/h
22.03.2012 9,8 C 87 % 1030,9 hPa 0,0 l/m 2,3 km/h SO 9,42 h 2,0 UV-I 359 W/m 8,4 km/h
23.03.2012 9,9 C 84 % 1026,9 hPa 0,2 l/m 0,2 km/h SO 9,58 h 2,0 UV-I 353 W/m 2,0 km/h
24.03.2012 10,9 C 79 % 1026,8 hPa 0,0 l/m 0,3 km/h SO 8,92 h 2,0 UV-I 349 W/m 1,6 km/h
25.03.2012 8,5 C 72 % 1031,5 hPa 0,0 l/m 1,7 km/h N 9,58 h 2,0 UV-I 388 W/m 4,4 km/h
26.03.2012 8,1 C 72 % 1034,2 hPa 0,0 l/m 0,4 km/h N-NO 9,50 h 2,0 UV-I 384 W/m 2,4 km/h
27.03.2012 8,6 C 79 % 1032,8 hPa 0,0 l/m 1,4 km/h N-NW 8,42 h 2,0 UV-I 321 W/m 3,6 km/h
28.03.2012 11,6 C 68 % 1027,5 hPa 0,2 l/m 2,6 km/h NW 8,50 h 2,3 UV-I 357 W/m 15,3 km/h
29.03.2012 6,8 C 85 % 1018,8 hPa 0,2 l/m 15,1 km/h N-NW 0,33 h 0,9 UV-I 85 W/m 34,2 km/h
30.03.2012 6,8 C 93 % 1015,5 hPa 6,4 l/m 8,6 km/h N-NW 0,00 h 0,7 UV-I 67 W/m 25,4 km/h
31.03.2012 3,6 C 82 % 1012,2 hPa 1,6 l/m 10,4 km/h N-NW 1,92 h 1,2 UV-I 176 W/m 20,1 km/h
Min-Datum 31.03.12 25.03.12 31.03.12 16 Tage 01.03.12 - - - - 01.03.12
Min-Zeit 23:55 14:20 08:20 - 01:50 - - - - 01:50
Minimum -2,4 C 38 % 1008,1 hPa - 0,0 km/h - - - - 0,0 km/h
Max-Datum 16.03.12 01.03.12 09.03.12 30.03.12 31.03.12 - 23.03.12 27.03.12 31.03.12 31.03.12
Max-Zeit 14:25 00:45 09:20 00:00 12:55 - 17:10 13:30 13:35 12:50
Maximum 19,9 C 100 % 1036,8 hPa 6,4 l/m 31,8 km/h
N-NW
- 9,50 h 3,8 UV-I 937 W/m 53,1 km/h
N-NW
Durchschnitt 6,9 C 84 % 1026,1 hPa #25,2 l/m 3,2 km/h N-NW #147:25 h 1,3 UV-I 218 W/m 9,7 km/h

Durchschnitt Minimum Temp.2,6 C
Durchschnitt Maximum Temp.11,7 C